Overview Statistics Trail Chart Weather Telemetry Raw packets
 

This is the latest recevied weather packets stored in our database for station/object 4S6DRJ-13. If no packets are shown the sender has not sent any weather packets the latest 10 day(s).

<< 55 56 57 58 59 60 61 >>
Time Temp. Humidity Pressure Rain* Wind** Luminosity Snow
1788366967 27.78° C 85% 1011.2 hPa 0 mm 0.89 m/s, 173° 0 W/m² -
1788366906 27.78° C 85% 1011.2 hPa 0 mm 0 m/s 0 W/m² -
1788366845 27.78° C 85% 1011.2 hPa 0 mm 0.89 m/s, 225° 0 W/m² -
1788366783 27.78° C 85% 1011.3 hPa 0 mm 0.45 m/s, 229° 0 W/m² -
1788366722 27.78° C 85% 1011.2 hPa 0 mm 0.89 m/s, 257° 0 W/m² -
1788366661 27.78° C 85% 1011.3 hPa 0 mm 0.45 m/s, 218° 0 W/m² -
1788366600 27.78° C 85% 1011.4 hPa 0 mm 0.89 m/s, 197° 0 W/m² -
1788366539 27.78° C 84% 1011.3 hPa 0 mm 0.89 m/s, 230° 0 W/m² -
1788366479 27.78° C 84% 1011.4 hPa 0 mm 0.45 m/s, 250° 0 W/m² -
1788366417 27.78° C 84% 1011.3 hPa 0 mm 0 m/s 0 W/m² -
1788366356 27.78° C 84% 1011.4 hPa 0 mm 0.45 m/s, 194° 0 W/m² -
1788366295 27.78° C 84% 1011.4 hPa 0 mm 0.89 m/s, 227° 0 W/m² -
1788366234 27.78° C 84% 1011.4 hPa 0 mm 0.89 m/s, 238° 0 W/m² -
1788366173 27.78° C 84% 1011.4 hPa 0 mm 0.89 m/s, 238° 0 W/m² -
1788366112 27.78° C 84% 1011.2 hPa 0 mm 0.89 m/s, 215° 0 W/m² -
1788366052 27.78° C 84% 1011.1 hPa 0 mm 0.89 m/s, 249° 0 W/m² -
1788365991 27.78° C 84% 1011.1 hPa 0 mm 0.89 m/s, 201° 0 W/m² -
1788365930 27.78° C 84% 1011.2 hPa 0 mm 0.89 m/s, 257° 0 W/m² -
1788365869 27.78° C 84% 1011.2 hPa 0 mm 0.89 m/s, 180° 0 W/m² -
1788365808 27.78° C 84% 1011 hPa 0 mm 1.34 m/s, 237° 0 W/m² -
1788365747 27.78° C 84% 1011.2 hPa 0 mm 0.45 m/s, 256° 0 W/m² -
1788365686 27.78° C 84% 1011.1 hPa 0 mm 0.89 m/s, 250° 0 W/m² -
1788365625 27.78° C 84% 1011.3 hPa 0 mm 0.45 m/s, 241° 0 W/m² -
1788365564 27.78° C 84% 1011 hPa 0 mm 1.34 m/s, 181° 0 W/m² -
1788365503 27.78° C 84% 1011.1 hPa 0 mm 0.89 m/s, 350° 0 W/m² -

* Rain latest hour (hover to see other rain measurements)
** Current wind speed in m/s (hover to see current wind gust speed)